01/11/2015,	00:00:00,	25.93,	21.80,	1010.50,	48.54,	0.50,	1190.52,	703.48,	1644.03,	229.83,	4.80,	1.19,	4.66,	1.10,	5.98,	1.18,	6.67,	1.34,	1.25,	0.57,	0.97,	0.47,	1.10,	0.55,	1.26,	0.57,	127.04,	307.75,	175.93,	292.04,	173.45,	284.16,	184.26,	314.47,	173.34
01/11/2015,	00:15:00,	25.98,	21.90,	1010.56,	49.18,	0.54,	1183.76,	702.04,	1636.61,	229.22,	4.78,	1.17,	4.60,	1.11,	6.03,	1.22,	6.64,	1.29,	1.20,	0.55,	0.96,	0.45,	1.07,	0.56,	1.20,	0.54,	127.31,	304.38,	175.36,	290.25,	173.39,	283.28,	184.08,	313.64,	172.70
01/11/2015,	00:30:00,	25.95,	22.00,	1010.44,	48.90,	0.53,	1187.28,	704.92,	1640.99,	230.96,	4.81,	1.18,	4.63,	1.08,	6.11,	1.19,	6.73,	1.34,	1.20,	0.56,	0.95,	0.45,	1.10,	0.53,	1.18,	0.54,	127.18,	305.58,	176.29,	291.43,	173.64,	282.76,	184.47,	315.24,	173.98
01/11/2015,	00:45:00,	25.98,	22.10,	1010.44,	48.50,	0.54,	1188.64,	703.03,	1641.56,	230.12,	4.71,	1.15,	4.69,	1.10,	6.05,	1.21,	6.59,	1.32,	1.17,	0.54,	1.00,	0.49,	1.11,	0.55,	1.18,	0.58,	126.51,	305.69,	174.79,	291.85,	174.37,	284.30,	184.16,	314.72,	173.21
01/11/2015,	01:00:00,	25.88,	22.20,	1010.56,	49.06,	0.50,	1187.81,	703.65,	1640.53,	230.64,	4.69,	1.11,	4.71,	1.07,	6.08,	1.19,	6.65,	1.26,	1.19,	0.51,	0.93,	0.44,	1.07,	0.53,	1.18,	0.51,	127.34,	307.21,	175.59,	291.20,	173.84,	283.28,	184.20,	313.95,	173.37
01/11/2015,	01:15:00,	26.05,	22.30,	1010.50,	49.13,	0.50,	1184.69,	702.70,	1636.98,	230.26,	4.81,	1.17,	4.63,	1.09,	6.06,	1.18,	6.68,	1.34,	1.24,	0.58,	0.96,	0.43,	1.05,	0.54,	1.17,	0.55,	126.85,	304.72,	175.23,	290.63,	173.76,	282.86,	183.66,	314.15,	173.61
01/11/2015,	01:30:00,	26.05,	22.50,	1010.62,	48.81,	0.53,	1188.09,	704.08,	1641.06,	230.72,	4.84,	1.22,	4.71,	1.13,	6.10,	1.21,	6.71,	1.29,	1.33,	0.60,	0.98,	0.45,	1.10,	0.55,	1.20,	0.55,	127.66,	306.14,	175.90,	291.00,	173.38,	284.14,	185.28,	314.74,	173.04
01/11/2015,	01:45:00,	26.03,	22.60,	1010.56,	49.15,	0.54,	1186.77,	704.38,	1640.35,	230.56,	4.75,	1.15,	4.83,	1.12,	6.04,	1.19,	6.68,	1.31,	1.17,	0.54,	0.97,	0.45,	1.05,	0.52,	1.17,	0.54,	127.02,	306.11,	175.57,	291.07,	174.51,	283.03,	184.95,	314.47,	172.88
01/11/2015,	02:00:00,	26.00,	22.70,	1010.74,	49.07,	0.55,	1187.11,	705.85,	1642.68,	230.02,	4.86,	1.20,	4.73,	1.11,	6.10,	1.23,	6.69,	1.33,	1.25,	0.56,	1.00,	0.47,	1.09,	0.54,	1.15,	0.54,	127.42,	305.92,	177.22,	290.62,	173.79,	283.74,	185.07,	314.65,	173.40
01/11/2015,	02:15:00,	26.05,	22.90,	1010.68,	48.77,	0.51,	1185.70,	705.16,	1639.79,	230.87,	4.83,	1.14,	4.55,	1.07,	6.17,	1.22,	6.71,	1.29,	1.14,	0.55,	0.95,	0.46,	1.08,	0.56,	1.13,	0.50,	127.05,	304.95,	176.55,	291.07,	173.93,	283.34,	183.89,	314.14,	174.16
01/11/2015,	02:30:00,	26.00,	23.00,	1010.74,	48.92,	0.51,	1187.13,	705.22,	1641.14,	231.12,	4.77,	1.20,	4.68,	1.12,	6.04,	1.19,	6.71,	1.29,	1.21,	0.56,	0.95,	0.49,	1.09,	0.52,	1.14,	0.53,	127.32,	305.37,	175.98,	290.65,	174.40,	283.63,	184.50,	315.38,	173.84
01/11/2015,	02:45:00,	26.00,	23.10,	1010.56,	49.42,	0.51,	1185.19,	704.79,	1639.54,	230.42,	4.71,	1.13,	4.63,	1.09,	5.96,	1.17,	6.57,	1.28,	1.23,	0.52,	0.96,	0.44,	1.03,	0.50,	1.16,	0.53,	127.50,	304.87,	176.78,	291.41,	174.00,	282.87,	183.69,	313.68,	173.82
01/11/2015,	03:00:00,	26.10,	23.20,	1010.50,	48.80,	0.51,	1186.39,	707.63,	1642.17,	231.87,	4.79,	1.16,	4.63,	1.12,	5.87,	1.14,	6.65,	1.25,	1.17,	0.50,	0.96,	0.44,	1.05,	0.52,	1.18,	0.55,	127.00,	304.35,	176.97,	290.96,	174.69,	283.30,	184.56,	315.51,	174.89
01/11/2015,	03:15:00,	26.12,	23.40,	1010.19,	48.94,	0.51,	1186.70,	707.22,	1641.90,	231.75,	4.75,	1.19,	4.76,	1.14,	6.12,	1.21,	6.78,	1.34,	1.24,	0.57,	0.94,	0.45,	1.06,	0.51,	1.19,	0.56,	126.95,	304.07,	176.66,	292.12,	175.10,	283.56,	185.06,	314.77,	173.94
01/11/2015,	03:30:00,	26.05,	23.50,	1010.01,	49.04,	0.52,	1184.19,	704.35,	1636.62,	231.60,	5.00,	1.15,	4.59,	1.07,	6.01,	1.22,	6.72,	1.33,	1.21,	0.55,	1.01,	0.47,	1.07,	0.53,	1.17,	0.55,	127.01,	303.57,	176.22,	290.72,	173.87,	283.49,	183.68,	314.28,	174.17
01/11/2015,	03:45:00,	26.20,	23.60,	1009.70,	49.23,	0.55,	1187.13,	707.01,	1642.35,	231.67,	4.66,	1.16,	4.71,	1.16,	6.09,	1.22,	6.83,	1.34,	1.20,	0.54,	0.97,	0.45,	1.13,	0.59,	1.16,	0.56,	127.52,	304.74,	176.63,	291.05,	174.80,	283.97,	184.71,	315.25,	174.46
01/11/2015,	04:00:00,	26.10,	23.70,	1009.70,	48.60,	0.53,	1185.04,	708.05,	1641.17,	231.83,	4.74,	1.18,	4.78,	1.10,	5.99,	1.11,	6.46,	1.22,	1.24,	0.56,	0.95,	0.43,	1.05,	0.51,	1.16,	0.51,	127.27,	304.70,	176.82,	290.57,	175.29,	283.66,	185.05,	313.81,	174.37
01/11/2015,	04:15:00,	26.10,	23.70,	1009.52,	48.96,	0.49,	1184.39,	706.87,	1639.70,	231.21,	4.75,	1.14,	4.79,	1.08,	6.06,	1.17,	6.66,	1.28,	1.18,	0.52,	0.98,	0.45,	1.06,	0.53,	1.14,	0.50,	127.78,	304.74,	176.54,	290.41,	175.38,	282.54,	184.73,	314.41,	173.72
01/11/2015,	04:30:00,	26.17,	23.80,	1009.52,	48.74,	0.52,	1182.65,	706.59,	1637.23,	232.15,	4.65,	1.17,	4.63,	1.11,	5.89,	1.12,	6.59,	1.28,	1.19,	0.53,	0.96,	0.47,	1.11,	0.53,	1.18,	0.50,	126.98,	303.69,	176.62,	289.97,	174.99,	281.35,	184.54,	315.34,	173.88
01/11/2015,	04:45:00,	26.05,	23.90,	1009.52,	49.38,	0.53,	1185.99,	705.17,	1639.82,	231.21,	4.76,	1.21,	4.79,	1.12,	5.99,	1.11,	6.55,	1.28,	1.22,	0.56,	0.96,	0.45,	1.06,	0.54,	1.22,	0.56,	127.42,	304.96,	175.93,	290.48,	174.13,	282.67,	184.29,	315.80,	174.25
01/11/2015,	05:00:00,	26.10,	24.00,	1009.34,	49.23,	0.51,	1184.38,	706.63,	1639.10,	231.75,	4.74,	1.19,	4.80,	1.15,	6.07,	1.23,	6.73,	1.29,	1.25,	0.57,	0.90,	0.43,	1.05,	0.53,	1.21,	0.58,	127.80,	304.76,	176.78,	290.14,	174.86,	283.19,	183.88,	314.26,	174.66
01/11/2015,	05:15:00,	26.20,	24.00,	1009.22,	48.99,	0.51,	1187.59,	707.34,	1642.53,	232.22,	4.72,	1.13,	4.64,	1.09,	6.10,	1.20,	6.71,	1.33,	1.25,	0.56,	1.01,	0.48,	1.09,	0.55,	1.20,	0.56,	127.47,	305.33,	177.30,	290.63,	174.89,	283.58,	184.57,	315.78,	174.09
01/11/2015,	05:30:00,	26.12,	24.00,	1009.70,	49.36,	0.51,	1187.29,	706.86,	1641.76,	232.36,	4.79,	1.19,	4.67,	1.09,	5.90,	1.18,	6.73,	1.29,	1.19,	0.53,	0.95,	0.44,	1.07,	0.55,	1.23,	0.61,	128.10,	305.35,	176.30,	290.69,	175.61,	283.18,	184.29,	315.97,	174.25
01/11/2015,	05:45:00,	26.15,	24.10,	1009.28,	49.50,	0.52,	1183.81,	706.51,	1638.57,	231.56,	4.75,	1.16,	4.71,	1.11,	6.02,	1.19,	6.69,	1.27,	1.18,	0.53,	0.97,	0.46,	1.11,	0.57,	1.20,	0.57,	128.11,	304.99,	177.09,	289.97,	174.25,	281.93,	183.98,	314.76,	174.74
01/11/2015,	06:00:00,	26.07,	24.10,	1009.52,	48.99,	0.48,	1180.52,	703.63,	1632.91,	231.27,	4.71,	1.18,	4.48,	1.01,	6.05,	1.19,	6.63,	1.29,	1.23,	0.56,	0.97,	0.44,	1.08,	0.56,	1.20,	0.54,	127.37,	303.73,	176.20,	289.27,	174.50,	282.53,	183.07,	312.73,	173.32
01/11/2015,	06:15:00,	26.07,	24.10,	1009.64,	48.47,	0.52,	1182.66,	705.30,	1636.46,	231.34,	4.93,	1.21,	4.83,	1.16,	5.99,	1.22,	6.65,	1.35,	1.26,	0.61,	0.95,	0.44,	1.08,	0.56,	1.17,	0.56,	126.53,	303.54,	177.04,	289.92,	174.36,	281.90,	183.60,	315.11,	173.88
01/11/2015,	06:30:00,	26.17,	24.10,	1009.70,	49.11,	0.48,	1183.25,	704.65,	1636.99,	231.07,	4.66,	1.10,	4.63,	1.07,	5.94,	1.20,	6.55,	1.31,	1.22,	0.54,	0.91,	0.43,	1.09,	0.53,	1.18,	0.54,	127.46,	304.64,	176.87,	289.95,	174.32,	281.85,	183.53,	314.52,	173.42
01/11/2015,	06:45:00,	26.17,	24.10,	1009.70,	48.78,	0.53,	1183.42,	704.37,	1637.10,	230.54,	4.82,	1.18,	4.75,	1.10,	6.07,	1.19,	6.63,	1.30,	1.16,	0.54,	0.99,	0.47,	1.03,	0.53,	1.21,	0.59,	127.84,	304.27,	176.78,	289.49,	174.50,	283.34,	183.64,	314.26,	172.94
01/11/2015,	07:00:00,	26.17,	24.10,	1009.83,	48.91,	0.49,	1183.04,	702.31,	1635.69,	229.51,	4.77,	1.17,	4.70,	1.06,	6.00,	1.14,	6.67,	1.34,	1.20,	0.56,	0.95,	0.45,	1.00,	0.50,	1.22,	0.56,	126.78,	304.36,	175.59,	290.20,	173.99,	282.66,	182.92,	313.62,	173.27
01/11/2015,	07:15:00,	26.12,	24.00,	1009.77,	49.05,	0.53,	1181.82,	703.34,	1634.64,	230.64,	4.72,	1.16,	4.69,	1.11,	5.86,	1.12,	6.63,	1.29,	1.19,	0.56,	0.95,	0.44,	1.04,	0.53,	1.19,	0.56,	127.51,	303.67,	175.51,	289.34,	174.09,	282.65,	183.64,	314.11,	173.52
01/11/2015,	07:30:00,	26.20,	24.00,	1009.77,	49.21,	0.51,	1182.49,	705.20,	1636.18,	231.10,	4.71,	1.14,	4.79,	1.08,	6.11,	1.15,	6.74,	1.28,	1.26,	0.57,	0.95,	0.46,	1.09,	0.53,	1.13,	0.51,	127.34,	303.89,	176.15,	289.75,	173.92,	282.29,	184.75,	314.44,	173.82
01/11/2015,	07:45:00,	26.17,	23.90,	1009.95,	48.77,	0.53,	1182.74,	704.39,	1636.06,	230.69,	4.78,	1.23,	4.77,	1.11,	6.17,	1.24,	6.87,	1.31,	1.23,	0.56,	0.90,	0.44,	1.03,	0.53,	1.19,	0.53,	127.15,	304.57,	176.27,	289.62,	174.41,	282.01,	183.95,	314.50,	173.29
01/11/2015,	08:00:00,	26.17,	23.80,	1009.89,	48.97,	0.53,	1184.93,	705.87,	1639.58,	231.02,	4.79,	1.21,	4.71,	1.09,	6.12,	1.21,	6.69,	1.31,	1.20,	0.55,	0.95,	0.44,	1.04,	0.51,	1.15,	0.51,	126.31,	304.72,	176.57,	290.90,	174.67,	283.52,	184.42,	313.57,	173.74
01/11/2015,	08:15:00,	26.20,	23.70,	1010.25,	48.91,	0.52,	1179.30,	704.05,	1632.46,	230.69,	4.86,	1.21,	4.62,	1.11,	6.09,	1.19,	6.77,	1.31,	1.20,	0.56,	0.92,	0.45,	1.04,	0.51,	1.16,	0.57,	126.98,	302.78,	176.22,	289.02,	174.31,	282.62,	184.08,	312.66,	173.04
01/11/2015,	08:30:00,	26.17,	23.50,	1010.31,	48.98,	0.54,	1176.95,	701.53,	1629.03,	229.56,	4.69,	1.19,	4.77,	1.14,	5.98,	1.19,	6.66,	1.30,	1.20,	0.55,	0.98,	0.48,	1.02,	0.54,	1.17,	0.56,	126.69,	302.30,	175.56,	288.85,	173.70,	281.27,	183.91,	312.35,	171.92
01/11/2015,	08:45:00,	26.25,	23.40,	1010.80,	49.01,	0.50,	1176.75,	701.20,	1628.50,	229.38,	4.81,	1.18,	4.62,	1.09,	5.99,	1.13,	6.62,	1.30,	1.17,	0.51,	0.91,	0.41,	1.05,	0.55,	1.20,	0.54,	126.72,	301.93,	174.74,	288.03,	173.41,	281.05,	183.62,	313.47,	172.93
01/11/2015,	09:00:00,	26.22,	23.20,	1011.11,	48.72,	0.48,	1177.45,	700.44,	1628.83,	229.12,	4.67,	1.09,	4.58,	1.08,	5.93,	1.14,	6.72,	1.27,	1.17,	0.53,	0.88,	0.43,	1.02,	0.49,	1.15,	0.54,	126.35,	301.53,	174.80,	288.59,	173.05,	281.07,	183.17,	313.86,	172.84
01/11/2015,	09:15:00,	26.22,	23.00,	1011.29,	48.90,	0.52,	1174.92,	700.42,	1625.61,	229.74,	4.75,	1.22,	4.60,	1.14,	6.00,	1.24,	6.70,	1.30,	1.24,	0.55,	0.98,	0.45,	1.13,	0.55,	1.18,	0.56,	127.34,	301.85,	174.46,	288.07,	173.43,	281.18,	183.14,	311.62,	172.92
01/11/2015,	09:30:00,	26.20,	22.80,	1011.84,	49.01,	0.52,	1173.32,	700.87,	1624.98,	229.15,	4.84,	1.20,	4.56,	1.05,	6.08,	1.20,	6.61,	1.29,	1.20,	0.54,	0.93,	0.42,	1.04,	0.53,	1.11,	0.51,	127.03,	301.10,	175.24,	288.02,	173.21,	280.43,	183.28,	311.48,	172.60
01/11/2015,	09:45:00,	26.15,	22.70,	1012.45,	48.29,	0.52,	1174.15,	698.56,	1623.99,	228.87,	4.63,	1.19,	4.57,	1.09,	6.07,	1.17,	6.61,	1.33,	1.22,	0.52,	0.97,	0.47,	1.01,	0.49,	1.20,	0.55,	126.37,	300.78,	174.59,	288.34,	172.72,	281.09,	182.46,	311.54,	172.23
01/11/2015,	10:00:00,	26.12,	22.50,	1012.33,	48.78,	0.52,	1174.64,	699.75,	1625.28,	229.08,	4.77,	1.17,	4.77,	1.12,	5.96,	1.18,	6.63,	1.28,	1.19,	0.55,	0.92,	0.43,	1.00,	0.50,	1.15,	0.54,	126.98,	302.08,	175.24,	288.96,	173.48,	280.63,	183.16,	310.79,	171.31
01/11/2015,	10:15:00,	26.12,	22.60,	1012.15,	48.48,	0.50,	1175.84,	698.59,	1625.89,	228.61,	4.73,	1.13,	4.60,	1.04,	5.97,	1.20,	6.63,	1.29,	1.17,	0.54,	0.94,	0.46,	0.99,	0.51,	1.24,	0.57,	126.36,	301.21,	174.81,	288.66,	172.07,	281.57,	182.92,	312.14,	172.25
01/11/2015,	10:30:00,	26.10,	22.40,	1012.57,	48.51,	0.55,	1174.75,	696.79,	1623.78,	227.73,	4.72,	1.15,	4.67,	1.09,	5.99,	1.17,	6.69,	1.39,	1.28,	0.59,	1.00,	0.43,	1.10,	0.56,	1.18,	0.56,	126.18,	301.21,	173.80,	288.29,	172.20,	280.65,	183.03,	312.44,	171.22
01/11/2015,	10:45:00,	25.98,	22.50,	1012.82,	48.71,	0.49,	1173.90,	699.65,	1623.23,	230.37,	4.68,	1.14,	4.73,	1.12,	6.04,	1.18,	6.50,	1.28,	1.19,	0.52,	0.95,	0.45,	1.05,	0.53,	1.19,	0.54,	126.15,	299.97,	174.94,	288.93,	172.04,	280.63,	183.80,	312.05,	172.31
01/11/2015,	11:00:00,	26.10,	22.30,	1013.12,	48.63,	0.52,	1172.30,	696.84,	1621.50,	227.71,	4.75,	1.20,	4.66,	1.14,	5.98,	1.16,	6.67,	1.34,	1.18,	0.55,	0.97,	0.47,	1.06,	0.53,	1.18,	0.56,	126.79,	300.20,	174.19,	288.37,	172.08,	280.61,	182.00,	310.90,	172.05
01/11/2015,	11:15:00,	26.03,	22.40,	1013.18,	48.28,	0.50,	1173.63,	697.01,	1622.49,	228.44,	4.62,	1.16,	4.49,	1.06,	5.98,	1.14,	6.63,	1.27,	1.14,	0.56,	0.96,	0.45,	1.09,	0.54,	1.20,	0.58,	125.95,	300.85,	173.37,	288.26,	173.06,	279.96,	182.27,	312.28,	171.73
01/11/2015,	11:30:00,	26.05,	22.20,	1013.43,	48.03,	0.54,	1171.07,	695.46,	1618.57,	228.01,	4.74,	1.21,	4.76,	1.10,	6.04,	1.20,	6.55,	1.32,	1.29,	0.61,	0.96,	0.48,	1.03,	0.51,	1.14,	0.53,	126.39,	298.99,	173.08,	287.86,	171.99,	280.40,	182.88,	311.60,	170.97
01/11/2015,	11:45:00,	26.05,	22.30,	1013.73,	48.54,	0.50,	1173.29,	697.11,	1622.26,	228.12,	4.66,	1.14,	4.66,	1.08,	6.06,	1.17,	6.67,	1.30,	1.17,	0.54,	0.95,	0.44,	0.99,	0.50,	1.15,	0.55,	126.14,	299.72,	173.81,	288.39,	172.58,	280.58,	182.59,	312.35,	171.59
01/11/2015,	12:00:00,	26.03,	22.30,	1013.61,	48.73,	0.47,	1171.31,	695.92,	1619.79,	227.41,	4.72,	1.13,	4.51,	1.02,	5.94,	1.11,	6.69,	1.26,	1.16,	0.52,	0.98,	0.44,	1.02,	0.51,	1.14,	0.53,	126.48,	300.28,	174.63,	288.32,	172.32,	279.82,	181.36,	310.53,	170.99
01/11/2015,	12:15:00,	26.05,	22.10,	1013.55,	48.57,	0.51,	1171.52,	697.02,	1620.74,	227.84,	4.76,	1.14,	4.61,	1.09,	5.98,	1.20,	6.54,	1.24,	1.14,	0.49,	0.95,	0.45,	1.07,	0.53,	1.17,	0.54,	126.57,	300.74,	174.77,	287.27,	171.84,	280.71,	182.26,	310.47,	171.58
01/11/2015,	12:30:00,	25.95,	22.20,	1013.85,	48.60,	0.51,	1172.62,	696.65,	1621.67,	227.59,	4.74,	1.21,	4.65,	1.12,	5.98,	1.15,	6.65,	1.28,	1.25,	0.54,	0.98,	0.45,	1.06,	0.55,	1.18,	0.56,	126.03,	300.46,	173.55,	287.35,	172.94,	281.63,	182.81,	311.01,	170.83
01/11/2015,	12:45:00,	25.98,	22.30,	1013.67,	48.14,	0.52,	1171.35,	697.49,	1620.16,	228.63,	4.69,	1.16,	4.56,	1.08,	6.03,	1.11,	6.69,	1.28,	1.24,	0.53,	0.95,	0.45,	1.02,	0.51,	1.18,	0.52,	126.21,	299.06,	174.14,	288.06,	172.60,	280.34,	182.77,	311.53,	171.37
01/11/2015,	13:00:00,	25.85,	22.20,	1013.73,	48.65,	0.51,	1172.07,	696.05,	1620.15,	228.28,	4.84,	1.21,	4.61,	1.09,	5.76,	1.15,	6.57,	1.29,	1.13,	0.55,	0.95,	0.42,	1.06,	0.53,	1.17,	0.56,	126.08,	299.87,	172.47,	288.41,	172.55,	280.57,	182.77,	310.94,	171.68
01/11/2015,	13:15:00,	25.88,	22.10,	1013.73,	48.47,	0.47,	1177.76,	699.02,	1627.27,	229.55,	4.74,	1.17,	4.66,	1.11,	5.89,	1.09,	6.63,	1.25,	1.18,	0.51,	0.95,	0.46,	1.05,	0.53,	1.19,	0.57,	126.19,	301.12,	174.53,	289.32,	172.31,	281.95,	183.67,	313.18,	171.93
01/11/2015,	13:30:00,	25.81,	22.20,	1013.49,	48.50,	0.52,	1170.51,	694.66,	1617.88,	227.39,	4.77,	1.16,	4.62,	1.09,	5.95,	1.15,	6.55,	1.29,	1.16,	0.52,	0.97,	0.45,	0.99,	0.45,	1.16,	0.55,	126.33,	299.78,	173.61,	287.80,	172.02,	279.88,	181.75,	310.60,	170.76
01/11/2015,	13:45:00,	25.85,	22.10,	1013.92,	47.98,	0.50,	1172.79,	697.04,	1621.51,	228.47,	4.75,	1.16,	4.60,	1.08,	5.92,	1.20,	6.70,	1.37,	1.21,	0.56,	0.94,	0.46,	1.01,	0.51,	1.17,	0.55,	125.71,	299.83,	174.03,	287.82,	172.35,	281.11,	182.47,	311.94,	171.63
01/11/2015,	14:00:00,	25.85,	22.10,	1014.04,	48.40,	0.49,	1173.10,	698.54,	1622.88,	228.85,	4.62,	1.17,	4.67,	1.08,	5.92,	1.12,	6.56,	1.27,	1.16,	0.53,	0.97,	0.44,	1.00,	0.49,	1.22,	0.54,	126.05,	300.75,	173.94,	287.08,	172.80,	280.47,	182.91,	312.32,	172.28
01/11/2015,	14:15:00,	25.85,	22.20,	1014.16,	48.39,	0.53,	1171.84,	696.71,	1620.04,	228.49,	4.66,	1.10,	4.69,	1.06,	5.96,	1.11,	6.58,	1.23,	1.15,	0.52,	0.91,	0.43,	1.01,	0.48,	1.21,	0.55,	125.85,	299.91,	173.68,	287.62,	172.15,	279.77,	182.65,	312.20,	171.57
01/11/2015,	14:30:00,	25.85,	22.00,	1013.85,	48.09,	0.53,	1174.31,	697.30,	1623.19,	228.49,	4.79,	1.16,	4.65,	1.12,	5.98,	1.19,	6.60,	1.32,	1.18,	0.53,	0.99,	0.49,	1.11,	0.57,	1.15,	0.50,	125.66,	300.39,	174.07,	289.36,	173.02,	280.45,	181.54,	311.97,	172.18
01/11/2015,	14:45:00,	25.85,	22.10,	1013.43,	48.52,	0.49,	1172.42,	697.31,	1621.95,	228.08,	4.64,	1.17,	4.60,	1.09,	5.83,	1.17,	6.70,	1.29,	1.15,	0.54,	0.92,	0.40,	1.09,	0.53,	1.13,	0.53,	126.24,	300.47,	174.73,	288.29,	172.57,	280.65,	182.71,	310.77,	170.79
01/11/2015,	15:00:00,	25.81,	22.20,	1013.61,	48.59,	0.49,	1171.81,	697.15,	1621.00,	227.89,	4.63,	1.12,	4.66,	1.03,	5.86,	1.18,	6.73,	1.28,	1.22,	0.51,	0.91,	0.39,	1.07,	0.53,	1.12,	0.48,	126.29,	299.76,	173.78,	287.78,	172.32,	279.98,	182.46,	311.91,	172.01
01/11/2015,	15:15:00,	25.85,	22.00,	1013.31,	48.20,	0.48,	1172.14,	698.23,	1622.72,	227.85,	4.70,	1.16,	4.70,	1.07,	5.92,	1.16,	6.51,	1.28,	1.16,	0.52,	0.94,	0.45,	1.04,	0.54,	1.14,	0.52,	126.15,	299.87,	174.46,	287.75,	172.94,	280.98,	183.07,	311.17,	171.21
01/11/2015,	15:30:00,	25.78,	22.10,	1013.00,	48.79,	0.48,	1177.85,	698.56,	1627.92,	228.54,	4.64,	1.15,	4.69,	1.09,	6.04,	1.16,	6.66,	1.32,	1.13,	0.49,	0.90,	0.41,	1.05,	0.52,	1.11,	0.49,	126.59,	301.45,	174.68,	288.76,	172.40,	281.82,	183.43,	313.59,	171.40
01/11/2015,	15:45:00,	25.73,	22.10,	1012.63,	48.70,	0.48,	1174.08,	696.95,	1623.04,	227.98,	4.71,	1.18,	4.64,	1.06,	5.97,	1.14,	6.71,	1.29,	1.16,	0.55,	0.93,	0.42,	1.05,	0.52,	1.15,	0.53,	126.01,	300.62,	173.58,	288.13,	172.08,	281.74,	183.29,	311.22,	171.40
01/11/2015,	16:00:00,	25.63,	22.00,	1012.63,	48.74,	0.46,	1176.58,	700.96,	1628.06,	229.29,	4.75,	1.14,	4.73,	1.08,	5.98,	1.16,	6.69,	1.27,	1.19,	0.54,	0.94,	0.44,	1.05,	0.55,	1.16,	0.53,	126.23,	301.52,	175.20,	288.42,	172.84,	281.46,	183.78,	312.87,	172.58
01/11/2015,	16:15:00,	25.66,	22.00,	1012.51,	48.80,	0.53,	1175.71,	699.41,	1626.04,	228.94,	4.75,	1.17,	4.70,	1.11,	6.16,	1.20,	6.66,	1.28,	1.15,	0.54,	0.96,	0.45,	0.99,	0.52,	1.23,	0.57,	126.37,	301.08,	174.99,	288.39,	173.04,	281.81,	183.59,	312.17,	171.28
01/11/2015,	16:30:00,	25.61,	22.10,	1012.51,	48.64,	0.51,	1175.51,	701.53,	1628.41,	228.62,	4.78,	1.13,	4.62,	1.05,	5.89,	1.18,	6.67,	1.31,	1.21,	0.56,	1.00,	0.46,	1.03,	0.52,	1.23,	0.55,	126.72,	301.12,	174.74,	288.13,	173.35,	281.82,	183.63,	312.29,	173.36
01/11/2015,	16:45:00,	25.59,	22.10,	1012.45,	48.53,	0.52,	1177.13,	701.07,	1628.67,	229.45,	4.83,	1.18,	4.71,	1.15,	6.00,	1.15,	6.59,	1.29,	1.21,	0.55,	0.98,	0.46,	1.02,	0.52,	1.18,	0.56,	126.42,	300.81,	175.41,	289.45,	173.18,	281.59,	183.58,	313.05,	172.35
01/11/2015,	17:00:00,	25.51,	22.00,	1012.82,	48.63,	0.51,	1179.88,	701.13,	1631.07,	229.75,	4.78,	1.14,	4.69,	1.09,	6.00,	1.17,	6.80,	1.28,	1.19,	0.59,	0.91,	0.44,	1.02,	0.50,	1.12,	0.52,	126.33,	301.78,	174.91,	290.01,	173.11,	282.60,	183.70,	313.32,	172.80
01/11/2015,	17:15:00,	25.59,	22.10,	1012.51,	48.94,	0.51,	1177.24,	697.49,	1626.58,	228.41,	4.60,	1.20,	4.64,	1.06,	6.02,	1.19,	6.57,	1.29,	1.18,	0.53,	0.96,	0.45,	1.05,	0.55,	1.12,	0.53,	127.04,	301.26,	173.86,	289.29,	172.65,	281.38,	182.69,	312.99,	171.80
01/11/2015,	17:30:00,	25.51,	22.10,	1012.76,	48.29,	0.53,	1175.85,	698.77,	1626.02,	228.72,	4.80,	1.15,	4.55,	1.06,	5.99,	1.19,	6.60,	1.36,	1.21,	0.55,	0.97,	0.47,	1.09,	0.55,	1.14,	0.52,	125.77,	301.64,	174.63,	288.42,	172.10,	281.23,	183.20,	312.30,	172.37
01/11/2015,	17:45:00,	25.54,	21.90,	1012.57,	48.44,	0.53,	1177.37,	699.54,	1627.90,	229.09,	4.73,	1.18,	4.61,	1.08,	6.03,	1.16,	6.51,	1.24,	1.15,	0.51,	0.93,	0.45,	1.05,	0.54,	1.13,	0.51,	126.24,	302.25,	174.92,	288.59,	172.70,	281.93,	183.75,	312.21,	171.55
01/11/2015,	18:00:00,	25.49,	22.00,	1012.63,	48.89,	0.53,	1176.61,	698.72,	1626.36,	228.90,	4.72,	1.18,	4.67,	1.10,	5.94,	1.17,	6.72,	1.33,	1.20,	0.52,	0.98,	0.45,	1.04,	0.52,	1.17,	0.54,	127.30,	301.30,	175.16,	288.56,	172.05,	282.14,	183.14,	312.36,	171.75
01/11/2015,	18:15:00,	25.46,	22.10,	1012.63,	48.46,	0.50,	1177.76,	701.20,	1629.39,	229.37,	4.66,	1.14,	4.74,	1.09,	6.02,	1.18,	6.74,	1.29,	1.22,	0.55,	0.99,	0.45,	1.02,	0.50,	1.18,	0.54,	126.72,	302.56,	174.99,	288.52,	172.85,	282.33,	183.98,	312.01,	172.81
01/11/2015,	18:30:00,	25.49,	21.90,	1012.45,	48.17,	0.51,	1178.32,	700.74,	1628.91,	230.25,	4.79,	1.19,	4.67,	1.08,	6.00,	1.22,	6.58,	1.32,	1.23,	0.57,	0.96,	0.45,	1.06,	0.55,	1.13,	0.54,	125.92,	301.77,	175.53,	289.63,	172.17,	282.12,	183.77,	312.59,	172.80
01/11/2015,	18:45:00,	25.51,	21.90,	1012.51,	48.75,	0.49,	1177.58,	697.90,	1626.73,	229.15,	4.71,	1.18,	4.58,	1.10,	5.82,	1.16,	6.55,	1.31,	1.20,	0.56,	0.94,	0.44,	1.05,	0.52,	1.14,	0.54,	127.03,	301.14,	174.75,	289.33,	172.47,	282.03,	182.34,	312.91,	171.83
01/11/2015,	19:00:00,	25.39,	22.00,	1012.39,	48.54,	0.50,	1176.41,	697.37,	1626.30,	227.66,	4.67,	1.17,	4.62,	1.11,	5.85,	1.10,	6.60,	1.31,	1.20,	0.54,	0.95,	0.45,	1.09,	0.52,	1.17,	0.56,	126.14,	300.47,	174.51,	289.85,	171.93,	281.39,	183.19,	312.37,	171.18
01/11/2015,	19:15:00,	25.42,	22.00,	1012.51,	48.33,	0.50,	1177.85,	697.70,	1627.09,	228.30,	4.62,	1.10,	4.64,	1.06,	6.10,	1.16,	6.68,	1.26,	1.16,	0.55,	0.94,	0.45,	1.07,	0.50,	1.18,	0.52,	125.72,	300.66,	174.26,	290.12,	172.37,	281.63,	182.94,	313.19,	171.58
01/11/2015,	19:30:00,	25.37,	21.90,	1012.76,	48.43,	0.52,	1177.67,	698.74,	1627.96,	228.65,	4.64,	1.13,	4.61,	1.07,	5.99,	1.17,	6.53,	1.27,	1.15,	0.52,	0.94,	0.43,	1.05,	0.50,	1.16,	0.54,	126.40,	302.22,	174.13,	288.62,	173.15,	280.63,	182.55,	313.96,	172.26
01/11/2015,	19:45:00,	25.27,	21.90,	1012.63,	48.81,	0.52,	1179.35,	697.90,	1629.22,	227.96,	4.79,	1.16,	4.73,	1.12,	5.88,	1.17,	6.67,	1.28,	1.21,	0.53,	0.95,	0.47,	1.04,	0.53,	1.22,	0.56,	126.30,	301.79,	175.06,	290.38,	172.84,	281.74,	181.51,	313.26,	171.94
01/11/2015,	20:00:00,	25.29,	21.90,	1012.88,	48.14,	0.51,	1178.07,	698.23,	1627.72,	228.72,	4.71,	1.15,	4.64,	1.09,	5.98,	1.20,	6.68,	1.33,	1.14,	0.52,	0.91,	0.43,	0.99,	0.52,	1.17,	0.52,	125.71,	302.16,	174.55,	289.64,	172.36,	282.02,	183.73,	312.01,	170.98
01/11/2015,	20:15:00,	25.39,	22.00,	1013.12,	48.14,	0.52,	1176.28,	696.68,	1625.50,	227.65,	4.67,	1.18,	4.64,	1.08,	5.91,	1.11,	6.57,	1.27,	1.19,	0.55,	0.97,	0.47,	1.07,	0.52,	1.10,	0.54,	125.68,	301.02,	173.92,	289.99,	172.14,	280.22,	182.53,	312.63,	171.50
01/11/2015,	20:30:00,	25.29,	21.90,	1013.12,	48.50,	0.51,	1174.84,	696.79,	1624.00,	227.65,	4.74,	1.17,	4.72,	1.12,	5.93,	1.20,	6.64,	1.25,	1.19,	0.54,	1.03,	0.48,	0.98,	0.50,	1.16,	0.53,	126.51,	301.17,	173.67,	287.84,	172.26,	281.51,	183.42,	312.09,	170.88
01/11/2015,	20:45:00,	25.32,	21.80,	1013.37,	48.85,	0.52,	1177.15,	696.89,	1626.57,	227.62,	4.74,	1.18,	4.58,	1.05,	5.92,	1.12,	6.51,	1.32,	1.18,	0.53,	0.95,	0.45,	1.10,	0.55,	1.21,	0.56,	126.54,	301.73,	173.91,	289.00,	172.34,	281.51,	182.55,	312.67,	171.58
01/11/2015,	21:00:00,	25.32,	21.90,	1013.67,	48.70,	0.48,	1180.13,	697.99,	1629.84,	228.14,	4.75,	1.12,	4.68,	1.07,	6.09,	1.26,	6.64,	1.34,	1.23,	0.54,	0.93,	0.42,	1.01,	0.48,	1.17,	0.54,	126.47,	302.88,	174.37,	289.81,	172.38,	282.74,	182.75,	312.44,	171.93
01/11/2015,	21:15:00,	25.39,	21.70,	1013.73,	48.51,	0.47,	1178.62,	696.03,	1626.96,	227.68,	4.76,	1.19,	4.56,	1.07,	5.88,	1.06,	6.68,	1.34,	1.20,	0.51,	0.95,	0.40,	1.05,	0.50,	1.13,	0.55,	126.52,	301.62,	174.21,	290.02,	171.83,	281.88,	182.12,	312.77,	171.33
01/11/2015,	21:30:00,	25.37,	21.90,	1013.49,	47.73,	0.49,	1176.21,	696.73,	1624.60,	228.56,	4.64,	1.18,	4.66,	1.09,	5.83,	1.15,	6.64,	1.27,	1.19,	0.55,	0.91,	0.40,	1.01,	0.50,	1.18,	0.54,	125.13,	301.33,	174.71,	288.65,	171.19,	280.61,	182.50,	313.37,	171.65
01/11/2015,	21:45:00,	25.44,	21.70,	1013.73,	48.23,	0.48,	1179.74,	696.67,	1628.86,	227.78,	4.69,	1.14,	4.51,	1.09,	6.05,	1.15,	6.59,	1.30,	1.21,	0.56,	0.96,	0.45,	1.13,	0.56,	1.07,	0.54,	125.64,	303.49,	173.64,	290.09,	171.81,	282.01,	183.06,	311.81,	171.57
01/11/2015,	22:00:00,	25.39,	21.70,	1013.79,	48.65,	0.54,	1180.81,	698.35,	1631.31,	227.98,	4.68,	1.13,	4.72,	1.16,	5.91,	1.14,	6.64,	1.27,	1.15,	0.55,	0.93,	0.46,	1.04,	0.52,	1.16,	0.53,	125.80,	305.14,	174.48,	289.87,	172.16,	282.18,	183.51,	311.42,	171.61
01/11/2015,	22:15:00,	25.44,	21.70,	1013.79,	48.25,	0.51,	1178.74,	697.74,	1628.29,	228.05,	4.74,	1.17,	4.74,	1.12,	6.07,	1.17,	6.57,	1.24,	1.19,	0.53,	0.97,	0.46,	1.05,	0.54,	1.14,	0.52,	125.87,	303.89,	174.15,	288.76,	172.09,	281.41,	182.85,	312.50,	172.12
01/11/2015,	22:30:00,	25.37,	21.70,	1014.04,	48.47,	0.46,	1181.68,	697.51,	1630.69,	228.70,	4.72,	1.10,	4.51,	1.04,	5.80,	1.08,	6.60,	1.24,	1.14,	0.52,	0.90,	0.44,	1.05,	0.51,	1.13,	0.54,	126.24,	306.23,	174.19,	289.60,	172.46,	281.30,	182.84,	312.08,	171.45
01/11/2015,	22:45:00,	25.46,	21.70,	1013.98,	49.01,	0.47,	1181.98,	699.70,	1632.36,	229.09,	4.82,	1.17,	4.60,	1.09,	6.16,	1.17,	6.66,	1.28,	1.18,	0.55,	0.92,	0.41,	1.09,	0.51,	1.12,	0.51,	127.35,	304.45,	174.71,	290.45,	173.48,	281.74,	183.07,	313.03,	171.90